447  
ASUS42 KKEY 201310  
RWRKEY  
 
FLORIDA REGIONAL WEATHER ROUNDUP FOR THE FLORIDA KEYS  
NATIONAL WEATHER SERVICE KEY WEST FLORIDA  
900 AM EDT SUN MAY 20 2018  
   
..SOUTH FLORIDA AND THE KEYS
 
 
 
CITY SKY/WX TMP DP RH WIND PRES REMARKS
 
FORT MYERS CLOUDY 73 71 93 E6 30.05R  
SW REGIONAL AP PTSUNNY 73 72 96 SE8 30.06R  
NAPLES CLOUDY 74 74 100 E6 30.05R  
MIAMI LGT RAIN 74 73 97 E9 30.08R  
WEST KENDALL PTSUNNY 76 71 85 SE10 30.07R  
HOMESTEAD FAIR 76 72 87 E10 30.06R  
MARATHON FAIR 80 73 79 SE13G18 30.03R  
KEY WEST INTL FAIR 81 74 79 E13 30.03R  
   
..INTERNATIONAL WEATHER
 
 
 
CITY SKY/WX TMP DP RH WIND PRES REMARKS
 
NASSAU BAHAMAS PTSUNNY 79 70 73 SE16 30.12R  
CANCUN MEXICO MOSUNNY 81 75 83 E5 29.93R  
COZUMEL MEXICO SUNNY 81 75 83 E6 29.91R  
 
ADJACENT COASTAL WATERS...  
 
STATION/POSITION TIME SKY/WX TEMP WIND PRES WAVE
 
AIR SEA DIR/SP/G HT/PER  
(UTC) (F) (DEG/KT/KT) (MB) (FT/S)  
PULASKI SHOAL LI 1300 79 120/ 8/ 8 1016.4R  
SAND KEY 1250 75 1016.7R  
SOMBRERO KEY 1250 79 90/ 15/ 18 1016.3R  
LONG KEY 1200 79 79 130/ 14/ 16 1016.7R  
MOLASSES REEF 1200 78 78 160/ 18/ 20 1017.4R  
FOWEY ROCKS 1200 76 78 130/ 20/ 21 1018.5R  
BUOY 42097 1230 79 N/A 3/ 5  
 

 
 
 
CLICK HERE TO GO TO PREVIOUS BULLETINS.

The Nexlab FL Page Main Text Page